User: anonymous   Login
Location: Sperry Observatory
(40.6664°N, 74.3236°W)
Time: 19:10:53
(UTC-04:00)
Language:

UOSAT-12 - Orbit

View from above orbital plane
View from above orbital plane
View from above satellite
View from above satellite

Ground track
Ground track

The orbit data is extracted from the following two-line orbital elements,

1 25693U 99021A   15182.17618049 -.00000037  00000-0  14417-4 0  9991
2 25693 064.5544 175.1405 0041100 238.8571 199.6639 14.80470226874015
Epoch (UTC): 01 July 2015 04:13:41
Eccentricity: 0.0041100
inclination: 64.5544°
perigee height: 599 km
apogee height: 656 km
right ascension of ascending node: 175.1405°
argument of perigee: 238.8571°
revolutions per day: 14.80470226
mean anomaly at epoch: 199.6639°
orbit number at epoch: 87401

The dashed part of the orbit path shows where the satellite is in the earth's shadow,  

DLR